Temp
19 19 19 19 19 18 17 17 17 17 17 17 18 18 18 17 17 17 17 17 17 17 16 16 17 16 16 16 16 16 16 16 16
19 19 19 19 20 19 19 18 18 18 18 18 18 18 18 17 17 17 17 17 17 17 17 16 16 16 16 16 16 16 16 16 16
19 19 19 19 19 19 19 18 18 18 18 18 18 18 18 17 17 17 17 17 17 16 16 16 16 16 16 16 16 15 15 15 15
19 19 19 19 19 19 19 19 18 18 18 18 18 18 18 17 17 17 17 17 16 16 16 15 16 15 16 15 15 15 15 15 15
19 19 19 19 19 18 18 19 18 18 18 18 18 18 18 17 17 17 17 16 16 16 15 15 15 15 15 15 15 14 14 14 14
19 19 19 18 18 18 18 18 18 18 18 18 18 18 18 17 17 17 17 16 16 16 15 15 15 15 15 15 15 15 15 15 15
18 18 18 18 18 18 18 18 18 18 18 18 18 18 18 17 18 17 17 16 16 16 16 16 16 16 16 16 15 15 15 15 15
18 18 18 18 17 17 18 18 18 18 19 19 18 18 18 18 18 18 17 17 16 16 16 16 16 16 16 16 16 15 15 15 15
18 18 18 18 17 17 17 18 18 18 18 19 18 18 18 18 18 18 17 17 17 16 15 16 16 16 16 16 16 16 16 16 15
18 18 18 18 17 17 17 17 18 18 18 18 19 18 18 18 18 18 18 18 17 17 16 15 16 16 16 15 16 16 16 16 16
18 18 18 18 18 17 17 18 18 18 18 18 18 19 18 18 18 18 18 18 18 18 17 16 16 15 15 15 15 15 16 16 15
17 17 17 17 18 18 17 17 17 17 18 18 18 18 19 18 18 19 19 18 18 18 18 17 16 16 16 16 16 16 16 16 16
16 17 17 17 17 18 18 17 17 17 17 17 18 18 18 19 18 19 19 18 18 18 18 18 17 17 16 16 16 16 16 16 16
17 16 17 17 17 17 17 16 17 16 17 17 17 18 18 18 19 19 19 19 19 18 18 18 18 17 17 16 16 16 16 16 16
16 16 16 17 17 17 17 16 16 16 17 17 17 17 18 18 18 19 19 19 19 19 18 18 18 18 18 17 17 16 16 16 16
16 16 16 16 17 17 17 16 16 16 16 16 16 17 18 18 18 18 19 19 19 19 19 18 18 18 18 17 17 17 17 16 16
15 15 16 16 16 17 17 16 16 16 16 16 16 16 17 18 18 18 18 19 19 19 19 19 18 18 18 18 18 17 17 17 16
14 15 15 15 15 16 16 16 16 16 16 16 16 14 16 15 18 18 19 19 19 19 19 19 19 18 18 18 18 17 17 17 17
13 14 14 15 15 15 16 16 16 16 16 15 15 17 16 15 15 17 17 17 18 19 19 19 19 19 18 18 18 18 17 17 17
13 13 14 14 14 15 15 16 16 16 16 15 16 14 15 14 14 15 15 17 18 18 18 19 19 19 18 18 18 18 18 17 17
Height
829 830 830 830 830 831 831 832 832 833 833 833 833 833 833 834 835 836 836 836 836 836 837 838 837 837 837 836 836 835 834 834 833
830 831 832 832 832 832 832 832 833 834 834 834 834 835 835 835 836 837 837 837 837 838 838 838 839 839 839 838 838 837 836 836 835
831 831 832 833 833 833 833 834 834 835 835 836 836 836 836 836 836 837 838 839 839 839 839 839 839 839 839 839 839 838 838 837 836
831 831 832 833 834 834 834 834 835 835 836 836 837 836 837 837 837 837 838 839 840 840 840 840 840 840 840 840 840 839 839 838 838
830 831 832 832 833 834 835 835 835 836 836 837 837 837 838 838 838 838 838 838 840 840 840 840 840 840 840 840 840 840 840 839 839
830 830 831 832 832 833 834 835 836 836 836 837 837 837 838 838 838 839 839 840 840 840 840 840 840 840 841 841 841 840 840 839 839
829 830 830 831 831 832 832 834 836 836 836 836 836 837 838 838 838 839 839 839 840 840 840 840 840 840 840 841 841 840 840 839 839
828 828 829 830 830 831 831 831 832 834 834 835 835 836 837 837 837 838 838 839 839 839 839 839 840 840 840 840 840 840 840 839 839
825 826 827 827 828 829 829 829 830 831 833 833 834 834 835 835 835 836 837 837 838 838 838 839 839 839 839 839 838 838 838 838 838
822 823 824 824 825 826 827 828 828 828 829 830 831 831 832 833 833 834 835 835 836 837 837 837 837 838 838 837 837 837 836 836 836
819 819 820 820 821 822 823 824 825 826 827 827 828 828 829 830 830 831 832 833 833 834 834 835 836 836 837 837 836 836 835 834 834
815 815 815 816 817 818 819 820 821 823 823 824 825 825 826 827 827 827 828 829 830 831 831 832 833 834 834 835 834 834 833 832 832
811 811 811 812 812 812 813 815 816 818 818 821 820 821 822 823 824 824 824 825 826 827 828 829 829 829 830 832 832 832 831 831 830
807 807 806 807 808 809 809 809 810 812 812 815 817 817 817 818 819 819 820 820 821 822 823 825 825 826 826 827 828 828 828 828 828
801 802 802 802 802 803 804 805 805 806 808 811 811 812 813 814 814 814 815 815 816 817 818 819 820 821 822 822 823 823 823 824 824
794 796 797 798 796 797 798 799 800 801 804 808 808 807 808 808 808 809 808 808 809 811 812 813 814 816 817 817 818 818 819 818 818
787 789 790 792 793 791 792 794 795 796 798 801 804 803 801 799 800 802 802 801 803 803 805 807 808 809 810 811 812 813 814 814 814
780 781 783 785 788 788 788 787 789 791 792 794 797 801 797 794 792 793 794 794 796 796 798 799 800 802 804 806 807 808 808 809 809
774 775 776 777 779 781 782 784 783 784 785 788 789 789 790 791 792 787 787 789 790 790 790 792 793 795 797 799 800 802 804 804 805
768 769 770 771 772 774 776 778 779 780 779 781 783 783 786 790 784 787 786 785 785 784 784 784 785 787 790 791 793 795 797 798 799
Wind_Speed
12 14 11 9 9 11 11 12 14 14 12 10 8 8 9 9 9 11 12 12 11 13 13 12 12 13 13 14 14 14 15 15 15
10 11 8 7 7 8 10 12 13 13 11 9 7 8 8 9 8 7 8 10 9 11 12 11 11 11 11 12 12 13 13 13 13
8 10 8 7 7 6 8 11 13 13 11 8 5 7 7 7 7 9 10 6 8 9 10 10 10 9 9 9 10 10 10 11 11
8 9 9 8 7 6 7 10 13 14 12 8 5 9 7 4 7 9 7 5 8 7 6 7 8 8 8 8 8 8 8 8 8
11 10 11 10 8 7 7 8 12 15 13 10 7 8 7 6 6 7 7 8 8 7 6 7 6 6 5 5 6 6 6 6 6
15 13 13 12 11 9 8 8 10 13 14 12 9 8 8 8 7 6 7 7 8 7 6 5 5 4 4 4 3 4 4 4 4
16 16 15 15 15 12 10 10 10 12 14 15 13 10 8 10 9 8 7 7 8 8 7 6 5 4 3 3 2 2 1 1 1
17 17 18 19 17 16 15 13 14 13 14 16 16 14 12 9 10 11 9 9 9 9 8 7 6 5 4 4 3 3 3 2 2
20 21 21 22 21 21 19 17 15 15 15 16 18 17 15 12 11 12 11 10 11 11 10 9 8 7 7 6 5 5 5 5 5
23 24 24 25 25 24 23 21 19 18 17 17 19 21 18 16 14 16 15 13 13 13 12 11 11 10 9 9 9 8 8 7 7
27 28 29 29 28 27 27 25 24 22 20 19 20 22 21 19 17 17 18 17 15 15 15 14 13 12 12 11 11 11 10 10 10
28 32 33 33 33 30 30 28 26 25 23 24 23 20 23 22 20 19 21 21 19 18 17 16 15 14 14 14 14 14 13 14 12
21 30 33 34 34 33 34 33 31 29 27 28 27 26 25 24 24 22 22 24 23 22 20 19 18 17 16 16 16 15 16 13 13
23 23 29 33 33 30 33 34 33 32 30 28 28 28 28 27 27 28 26 27 26 26 24 22 20 20 19 18 18 17 17 17 17
25 26 24 28 31 31 31 30 33 33 32 30 30 29 30 30 30 30 30 30 29 29 28 25 24 23 21 21 20 20 18 19 19
29 28 29 25 27 32 31 31 28 32 30 24 24 30 32 34 35 33 33 35 32 31 31 30 28 26 24 23 22 22 21 19 19
29 29 31 29 26 26 30 27 22 25 27 16 10 3 13 33 36 36 36 38 36 35 35 34 32 31 29 27 24 23 23 23 21
27 27 28 31 27 29 26 30 29 20 21 31 12 2 4 2 21 39 42 41 39 38 38 37 35 34 33 31 28 26 24 24 23
26 27 26 28 32 28 29 31 28 30 21 21 32 30 5 4 3 14 28 37 42 42 40 40 39 37 35 34 33 30 28 26 25
26 25 26 26 28 31 29 30 30 26 26 23 18 26 23 13 2 2 6 19 32 36 41 43 43 40 39 38 35 32 31 29 27
Wind_Direction
136 142 141 144 140 135 136 141 144 144 140 133 128 128 127 119 113 99 106 102 96 102 93 92 85 83 82 79 78 72 72 73 73
151 156 157 156 150 146 143 152 155 153 149 138 126 132 134 128 125 124 125 107 104 112 105 100 98 93 89 83 82 82 78 75 73
170 176 175 171 168 163 153 160 165 164 159 147 141 148 149 139 135 135 125 118 116 108 111 110 107 102 98 94 91 88 86 81 77
191 194 190 187 186 184 175 170 175 176 173 166 163 162 161 158 154 159 158 171 140 140 129 123 123 120 117 113 106 101 92 87 83
205 213 204 200 199 204 202 185 184 187 186 181 177 178 187 177 163 167 157 153 158 159 152 140 139 134 126 117 112 103 94 86 79
210 218 212 212 208 206 216 213 201 199 200 193 197 198 198 198 190 188 201 201 180 176 174 170 164 161 148 138 132 122 108 91 79
219 223 222 218 218 216 216 225 224 214 208 203 204 204 205 217 223 217 210 205 194 195 203 199 196 192 185 180 178 171 164 103 46
230 228 225 223 222 224 222 219 221 225 218 212 212 218 218 233 232 226 227 226 214 212 219 222 218 220 222 217 218 234 246 272 293
234 234 231 228 226 227 228 227 226 229 227 220 219 220 227 238 239 234 237 235 233 225 228 236 234 232 236 240 242 245 250 259 274
240 240 236 234 231 231 231 232 232 229 230 229 224 222 229 235 243 244 242 240 245 242 232 235 242 241 241 243 248 254 257 261 268
247 244 243 240 236 235 235 235 234 236 236 235 231 228 232 236 245 248 244 244 244 249 249 240 241 244 246 249 254 259 262 265 270
266 254 247 246 243 238 237 238 237 240 240 242 236 235 234 240 243 248 246 245 245 251 252 252 247 249 252 253 255 262 268 268 279
273 259 255 250 246 240 237 237 236 236 240 244 243 238 240 243 246 249 246 246 247 250 253 256 256 254 252 256 260 263 275 278 278
270 270 259 255 249 239 237 236 237 237 239 242 248 246 244 245 249 248 248 246 249 252 254 257 259 259 258 254 256 260 263 268 274
269 267 268 254 247 240 237 235 236 237 241 241 244 248 250 250 249 250 248 246 249 254 256 256 257 258 259 258 260 258 258 261 266
267 267 265 262 245 241 240 237 231 235 239 239 248 249 250 254 251 249 247 245 248 253 255 256 256 257 257 259 261 264 264 263 263
263 262 263 262 259 246 238 235 229 234 232 224 237 250 250 250 248 247 246 247 248 250 253 254 257 258 257 258 262 265 266 266 265
266 262 260 260 258 258 252 236 229 229 228 226 207 201 223 241 240 242 244 245 246 249 251 253 255 258 258 260 261 262 265 266 265
271 264 261 260 256 255 258 254 241 228 226 229 223 230 245 192 299 237 241 243 246 249 252 253 255 257 258 258 261 264 264 266 267
269 265 262 262 260 254 252 256 246 250 232 230 231 232 236 254 167 268 307 245 247 251 252 255 257 258 258 260 261 262 263 264 266